This is the latest recevied weather packets stored in our database for station/object KE7JVX-3. If no packets are shown the sender has not sent any weather packets the latest 10 day(s).
| Time | Temp. | Humidity | Pressure | Rain* | Wind** | Luminosity | Snow |
|---|---|---|---|---|---|---|---|
| 1777994967 | 2.78° C | 79% | 1006.9 hPa | 4.83 mm | - | - | - |
| 1777994576 | 2.78° C | 79% | 1007.1 hPa | 6.1 mm | - | - | - |
| 1777994366 | 2.78° C | 79% | 1007.1 hPa | 6.1 mm | - | - | - |
| 1777993767 | 2.78° C | 79% | 1007 hPa | 5.84 mm | - | - | - |
| 1777993167 | 2.78° C | 79% | 1007.1 hPa | 6.6 mm | - | - | - |
| 1777992567 | 2.78° C | 79% | 1007.1 hPa | 5.84 mm | - | - | - |
| 1777991967 | 2.78° C | 78% | 1007.1 hPa | 4.57 mm | - | - | - |
| 1777991366 | 2.78° C | 78% | 1007.2 hPa | 3.3 mm | - | - | - |
| 1777990766 | 2.78° C | 79% | 1007.3 hPa | 2.03 mm | - | - | - |
| 1777989567 | 2.78° C | 79% | 1007.2 hPa | 1.52 mm | - | - | - |
| 1777988966 | 2.22° C | 78% | 1007 hPa | 1.52 mm | - | - | - |
| 1777988366 | 2.22° C | 78% | 1006.9 hPa | 1.78 mm | - | - | - |
| 1777987767 | 2.78° C | 79% | 1007 hPa | 2.03 mm | - | - | - |
| 1777987166 | 2.78° C | 78% | 1006.9 hPa | 2.03 mm | - | - | - |
| 1777986566 | 2.78° C | 78% | 1007 hPa | 1.78 mm | - | - | - |
| 1777985966 | 2.78° C | 78% | 1006.8 hPa | 1.27 mm | - | - | - |
| 1777984765 | 2.78° C | 78% | 1006.7 hPa | 0.51 mm | - | - | - |
| 1777984165 | 2.78° C | 78% | 1006.6 hPa | 0.51 mm | - | - | - |
| 1777983567 | 2.22° C | 78% | 1006.6 hPa | 0.25 mm | - | - | - |
| 1777982966 | 2.22° C | 78% | 1006.7 hPa | 0.25 mm | - | - | - |
| 1777982368 | 2.22° C | 78% | 1006.6 hPa | 0 mm | - | - | - |
| 1777981765 | 2.22° C | 78% | 1006.7 hPa | 0 mm | - | - | - |
| 1777981167 | 2.22° C | 78% | 1006.7 hPa | 0.25 mm | - | - | - |
| 1777980565 | 2.22° C | 78% | 1006.9 hPa | 0.25 mm | - | - | - |
| 1777979966 | 2.78° C | 78% | 1006.8 hPa | 0.25 mm | - | - | - |
* Rain latest hour (hover to see other rain measurements)
** Current wind speed in m/s (hover to see current wind gust speed)